Theta_e
359 357 351 345 327 317 309 313 323 321 324 331 332 327 328 332 326 316 341 350 353 354 359 360 366 367 367 368 367 366 366 369 369 369 370 371 370 370 370 370 370 369 369 365 364 365 364 364 363
349 348 347 335 317 305 306 316 314 325 330 332 331 334 331 327 336 339 344 350 353 355 358 362 366 368 367 368 367 369 369 370 370 370 370 370 370 370 370 368 367 368 367 364 364 364 363 362 361
348 347 334 328 308 306 306 314 318 327 331 331 332 336 334 331 341 343 348 352 355 354 359 362 369 368 368 368 369 370 370 370 369 369 370 370 370 368 366 366 366 367 368 366 363 362 362 361 360
339 337 335 312 306 312 313 317 323 327 331 334 335 331 339 345 342 347 354 356 355 356 361 368 370 369 370 371 370 371 371 370 370 369 368 368 368 367 365 365 365 364 365 366 364 363 362 362 360
342 332 318 307 309 315 317 320 322 324 329 333 337 331 335 344 348 352 353 355 353 357 362 366 370 370 370 370 372 372 371 370 370 369 368 368 370 367 367 365 363 362 361 362 364 362 361 360 359
324 324 315 306 310 312 315 321 325 329 331 334 336 335 336 347 347 350 353 354 356 356 362 364 370 371 371 371 370 372 371 369 369 369 369 368 369 368 366 363 361 360 359 359 360 365 363 360 360
323 319 316 314 312 314 316 323 323 326 329 330 339 332 338 343 349 352 353 355 356 357 359 363 365 367 370 372 371 370 369 370 370 370 369 367 366 365 364 365 363 361 359 359 360 362 365 364 362
326 321 316 316 315 310 319 321 325 325 326 338 339 328 330 342 350 352 354 353 355 356 358 358 361 364 365 366 372 369 369 369 370 369 367 367 365 362 362 356 358 362 363 361 361 361 362 364 362
332 316 312 315 316 315 322 320 326 330 330 334 335 336 339 344 350 348 349 351 352 356 357 357 358 360 361 363 367 371 370 371 369 368 368 365 357 354 351 353 352 359 363 361 360 359 361 361 360
324 317 313 321 323 322 326 327 328 326 328 329 333 338 340 342 343 343 346 345 346 349 355 356 357 358 360 361 361 363 363 363 360 359 359 359 355 353 355 348 347 360 362 361 360 359 360 358 350
325 317 321 321 325 326 324 328 331 330 323 330 330 333 336 340 342 344 343 342 348 350 351 352 354 357 357 360 359 358 356 359 359 358 358 357 353 349 352 351 350 351 358 355 359 355 354 351 349
317 321 324 325 328 326 324 326 322 330 327 336 336 337 337 336 337 339 340 340 346 346 349 355 359 356 355 357 358 357 358 357 356 358 357 355 352 350 353 353 353 353 351 351 352 350 352 349 350
317 318 322 323 324 326 329 325 324 323 329 338 338 338 337 336 336 339 341 344 344 344 353 354 354 356 355 354 356 353 356 356 354 355 356 355 352 350 353 352 352 352 352 350 350 350 349 350 350
320 318 321 321 322 326 325 322 325 325 332 334 335 335 336 336 336 337 339 343 343 343 351 355 354 357 355 356 356 355 356 353 356 355 354 358 355 352 351 350 349 353 349 352 350 349 348 347 349
321 314 318 319 321 324 328 323 325 331 332 331 333 334 335 336 338 337 340 341 343 344 346 351 354 358 355 355 356 357 357 357 352 353 353 354 354 351 351 347 349 349 350 350 350 349 350 347 347
313 312 306 316 318 323 324 316 328 332 330 329 332 334 335 335 337 339 341 341 344 342 347 346 355 356 356 357 357 356 353 355 356 353 354 355 357 353 350 347 348 348 349 346 344 343 342 343 344
309 304 309 313 316 317 318 319 328 332 332 331 332 333 335 336 337 338 341 341 342 346 347 345 347 352 356 356 358 357 357 356 355 356 355 354 355 355 352 350 350 345 344 343 343 342 343 341 340
304 306 311 311 314 315 316 319 327 330 331 331 332 335 336 337 338 340 344 346 347 347 348 350 349 352 355 355 355 357 354 351 355 356 353 352 351 355 350 348 347 347 346 345 344 341 342 342 341
312 310 311 316 318 314 315 320 324 327 328 326 328 331 333 335 341 343 345 346 347 349 349 350 347 353 354 352 351 350 348 350 352 354 355 351 352 352 350 348 347 347 345 344 343 342 339 337 340
309 312 311 316 319 315 314 317 322 323 325 328 329 330 332 333 340 343 344 344 346 347 351 353 353 355 355 355 354 353 352 353 352 355 352 350 348 350 350 348 345 342 342 340 338 339 336 337 340
307 305 311 312 318 318 316 311 316 322 323 328 331 332 332 333 335 340 343 343 346 349 352 354 356 356 356 353 355 352 349 348 344 347 347 341 339 340 343 341 340 341 340 338 338 337 335 333 336
300 310 311 313 312 304 315 302 310 315 316 323 328 329 329 333 334 336 336 337 345 351 354 356 356 354 356 354 351 343 336 326 338 339 339 338 340 339 339 340 341 339 339 338 338 341 336 336 332
305 311 308 307 306 303 307 301 309 314 312 318 323 328 330 332 334 335 337 340 345 351 352 352 355 356 348 337 339 331 326 331 335 336 334 330 334 339 342 343 339 338 338 338 339 337 336 335 333
313 307 305 304 299 293 300 302 306 310 314 319 323 326 329 331 334 336 338 341 345 348 352 356 353 344 342 336 333 329 328 329 329 332 330 332 332 333 340 339 336 337 336 336 335 337 336 335 333
307 302 295 293 293 293 301 300 307 317 320 319 320 321 325 330 332 334 335 339 344 345 350 355 347 342 340 337 337 333 332 331 330 330 333 329 329 334 334 334 335 332 334 336 336 334 333 333 331
303 301 297 292 293 297 304 298 305 321 323 323 324 322 324 328 331 332 334 336 342 344 349 350 345 343 340 339 335 333 332 331 334 338 333 328 329 332 334 332 335 334 336 336 336 333 332 333 330
304 300 305 298 300 296 300 305 314 320 320 322 324 323 321 324 330 330 333 336 341 342 349 348 346 345 342 340 337 335 335 334 335 334 332 331 335 333 333 333 334 335 336 336 335 334 332 330 329
307 309 299 297 292 291 298 303 302 308 312 319 321 321 322 324 329 331 332 335 341 343 347 348 348 345 345 342 341 340 339 336 335 334 332 333 331 335 333 334 335 335 334 334 333 330 330 329 329
304 301 302 301 298 292 292 298 312 313 313 312 312 315 319 326 326 332 333 337 341 344 348 348 348 346 344 343 340 339 337 336 336 334 333 334 336 336 335 335 334 333 333 334 332 330 331 330 329
307 304 304 297 297 299 298 301 315 315 315 315 317 319 318 323 327 331 336 339 341 343 346 346 348 345 342 342 341 333 331 334 334 333 333 333 332 333 333 332 332 334 334 333 332 329 331 329 327
Wind_Speed
9 8 2 2 3 1 12 17 9 18 8 5 15 4 9 5 2 8 7 13 15 12 10 12 15 16 16 16 17 18 17 16 16 16 17 16 15 14 13 12 12 11 10 11 10 10 10 9 8
10 12 3 3 2 10 5 7 10 19 18 17 11 17 17 16 14 14 11 13 16 13 9 9 13 16 16 17 18 16 18 17 16 16 15 14 14 13 12 13 12 11 10 9 9 8 8 8 6
8 11 4 4 3 11 6 5 8 27 24 21 16 17 8 16 16 6 13 14 15 13 11 11 13 15 16 16 17 17 17 16 15 15 14 14 13 13 13 12 11 9 8 8 8 7 7 7 5
6 2 4 2 11 14 12 9 20 21 21 18 16 13 10 11 10 12 18 17 15 12 11 12 14 15 15 16 18 17 16 15 14 13 14 13 12 12 12 10 8 7 6 6 6 5 4 4 4
1 4 5 4 8 12 12 15 15 19 19 22 20 15 10 20 19 17 17 14 15 12 9 9 13 13 14 14 16 15 15 14 12 12 11 11 11 9 8 7 5 4 4 5 4 3 3 3 2
8 4 4 1 8 10 9 16 23 23 21 22 21 18 10 18 18 15 16 13 14 12 10 9 13 14 13 14 15 15 14 14 12 10 9 9 8 7 5 4 2 2 2 2 2 1 2 0 0
11 2 6 6 4 8 9 20 19 18 21 15 18 16 13 18 17 17 17 14 15 13 9 8 8 12 15 13 14 13 13 12 10 9 8 8 7 6 4 3 3 4 3 2 0 1 2 3 2
7 6 4 13 10 4 9 12 22 18 18 21 21 9 17 16 20 14 16 14 15 12 10 9 7 6 6 7 13 13 12 11 10 9 8 6 6 6 4 2 4 6 5 4 4 1 3 2 3
4 3 5 15 16 5 14 18 11 19 21 12 7 19 17 18 20 17 15 14 11 12 12 10 7 7 7 6 8 11 12 10 9 8 8 6 4 4 6 4 6 4 7 5 4 2 3 3 4
7 5 5 21 11 15 14 12 5 6 19 20 21 15 14 17 15 16 16 12 7 8 12 11 10 8 8 7 6 6 8 5 5 5 6 4 3 3 3 2 4 7 6 6 6 4 3 3 2
10 11 22 10 13 16 10 5 3 9 14 22 24 20 13 18 18 16 10 10 13 9 7 8 7 7 6 5 4 2 2 4 5 7 6 5 4 2 1 1 1 2 3 1 3 1 2 2 3
10 14 16 13 24 15 8 5 2 11 6 21 20 18 9 8 12 11 13 8 12 10 8 8 8 7 6 4 5 4 4 4 4 6 7 4 3 4 3 2 2 2 2 2 1 1 2 2 5
8 10 15 17 20 18 18 7 6 5 6 21 20 16 13 8 8 11 12 11 8 8 8 7 7 6 6 5 2 3 5 4 6 5 6 5 4 4 3 2 1 2 1 1 1 2 3 3 5
4 9 13 13 17 16 19 9 8 7 7 20 19 15 13 11 10 7 10 11 8 7 11 8 8 7 5 4 4 2 1 4 4 4 4 5 5 4 4 3 3 2 2 2 2 3 4 4 4
5 9 13 10 20 19 22 12 10 12 14 14 14 14 13 13 12 9 11 11 10 6 9 11 9 7 7 6 4 3 1 2 1 4 5 5 5 6 5 3 3 3 3 2 2 4 4 4 4
5 7 6 9 11 12 13 10 12 11 12 11 13 13 12 10 13 11 12 11 10 8 8 8 9 8 7 5 3 2 1 1 2 3 3 5 5 6 5 3 3 4 3 2 2 2 4 4 3
5 6 13 5 5 8 8 14 16 14 13 13 13 12 11 8 11 10 11 10 9 10 9 8 7 9 8 7 4 4 4 3 3 3 4 6 3 6 4 3 4 4 3 3 2 3 3 3 4
7 5 14 11 11 8 11 9 17 17 15 14 12 11 12 9 10 13 11 9 10 10 9 8 6 7 8 5 3 3 3 3 3 3 3 1 2 2 2 2 3 2 2 2 2 4 3 3 4
10 11 9 6 10 7 8 17 18 17 14 10 8 11 13 11 16 16 12 10 10 10 8 9 8 7 6 3 3 2 3 3 4 4 6 1 2 2 1 2 2 2 3 5 5 3 3 2 2
10 11 13 13 13 9 10 16 17 11 12 17 13 12 14 12 18 16 14 12 12 11 8 7 8 8 6 4 3 3 3 4 3 4 2 4 4 1 3 3 2 2 1 3 3 3 0 2 1
12 8 15 13 13 9 10 4 2 6 10 14 17 15 11 13 16 16 15 13 12 14 12 10 8 8 7 7 3 1 1 2 1 1 4 3 3 1 3 2 2 3 3 3 2 2 2 2 2
7 6 6 12 20 10 11 6 5 13 12 15 18 17 14 16 15 14 12 8 12 13 11 11 10 8 7 7 4 4 3 2 2 3 3 3 2 3 2 2 1 3 2 4 3 3 1 1 3
8 8 6 6 4 5 11 6 13 13 12 7 13 18 17 20 20 18 17 12 12 14 12 9 10 8 7 8 8 5 3 2 2 3 3 2 4 5 5 1 5 4 3 3 3 3 3 1 1
6 3 5 7 1 1 7 9 5 15 18 19 15 20 18 21 22 21 18 15 15 13 12 9 9 8 8 8 7 6 5 4 3 1 2 2 2 2 6 5 4 2 2 3 2 3 3 3 2
5 4 2 3 2 7 8 6 11 21 19 21 20 15 14 24 23 22 22 19 19 16 15 11 12 8 9 9 8 7 7 7 5 4 2 3 1 2 3 3 3 1 2 4 3 2 3 3 0
8 10 7 6 4 8 10 6 5 21 22 21 18 17 13 20 22 23 22 19 21 19 17 16 14 9 9 8 8 8 7 3 3 4 4 2 2 3 2 3 3 3 4 4 4 2 3 4 2
11 6 10 5 5 3 5 5 7 17 15 16 21 14 12 11 19 22 21 20 20 18 18 18 15 12 10 8 7 7 6 6 5 5 4 2 3 2 2 2 1 3 3 4 4 3 3 0 3
12 8 2 4 2 5 5 2 5 8 9 13 12 15 14 17 16 18 20 20 17 18 16 17 16 16 12 9 8 7 7 7 7 5 5 4 3 2 3 3 3 3 4 4 4 2 4 2 2
2 4 4 7 6 6 3 5 5 10 10 11 11 11 14 22 16 18 20 20 19 17 17 18 16 15 13 9 9 7 7 7 7 7 5 5 3 3 3 4 4 4 5 5 4 4 5 5 5
9 9 10 7 4 1 7 6 9 11 9 9 9 9 7 9 20 18 18 20 19 17 17 18 16 15 13 10 9 8 7 6 6 6 6 5 4 3 4 4 4 4 5 5 5 5 5 5 5
Wind_Direction
169 191 196 285 20 203 61 67 135 133 103 230 131 100 85 85 53 135 160 138 122 115 115 111 112 113 112 110 111 112 116 108 102 99 99 98 101 103 99 97 91 88 87 86 90 89 86 84 75
192 195 190 278 213 77 65 83 66 102 140 165 118 95 71 71 84 120 124 125 124 125 113 117 115 116 116 120 122 120 115 111 102 97 100 104 105 104 104 99 97 94 92 94 91 85 84 79 74
203 208 136 192 132 97 96 90 96 129 142 142 120 111 83 121 124 109 135 122 109 107 114 131 126 123 125 125 123 122 119 114 113 108 112 113 115 116 106 102 104 106 110 102 91 84 80 78 74
196 57 308 190 116 115 117 86 96 100 96 104 111 73 70 113 110 127 113 114 110 119 125 135 136 130 126 125 124 120 121 121 122 124 122 123 118 111 111 112 111 110 104 97 94 89 81 86 70
39 56 1 108 119 124 137 130 119 110 96 93 100 97 89 97 115 122 118 122 121 119 125 134 137 130 124 121 117 120 121 123 124 126 127 121 115 113 113 114 120 118 109 110 95 66 44 56 71
38 28 30 26 66 110 95 103 99 101 103 102 106 108 104 136 140 141 131 128 127 130 125 130 133 134 134 133 128 124 124 127 127 129 120 115 114 123 129 144 156 158 138 101 104 131 128 210 244
110 49 296 292 89 91 110 100 108 118 131 126 122 123 137 153 150 149 143 144 129 131 125 133 131 141 142 139 135 134 128 123 125 123 125 135 143 141 162 206 204 219 229 266 260 359 202 221 256
135 152 162 18 328 153 126 111 126 143 124 130 136 138 153 163 147 137 144 139 127 135 141 135 137 132 138 149 147 145 140 142 140 137 150 165 163 174 172 303 268 260 261 284 306 320 305 313 288
107 122 121 175 239 317 97 123 134 120 136 160 192 139 150 148 139 135 130 134 139 148 149 147 153 159 153 144 157 154 157 158 158 161 178 188 201 162 229 225 242 255 263 251 262 286 293 298 301
138 249 141 181 152 106 100 90 66 89 113 109 118 123 144 131 125 138 136 140 139 136 151 154 164 158 152 164 164 168 168 165 172 186 189 196 174 171 230 217 260 238 254 232 242 227 256 290 259
178 210 118 153 115 112 106 111 252 86 120 137 136 141 155 139 138 139 142 149 154 154 157 165 150 155 152 144 168 199 176 168 187 198 189 202 145 217 56 161 11 237 244 242 177 178 221 282 250
82 93 111 133 110 106 121 129 88 127 146 130 133 142 144 146 150 156 139 151 152 162 149 140 134 133 177 174 177 191 180 191 188 203 194 168 158 163 199 166 278 351 160 158 176 253 214 281 275
103 103 102 110 117 128 141 121 120 123 104 126 136 145 149 156 157 138 152 134 139 133 145 140 147 160 175 171 162 169 199 196 183 181 192 169 165 188 175 171 265 293 262 269 279 329 319 319 299
108 126 123 131 114 109 96 116 97 232 158 132 143 152 163 162 161 143 132 133 137 157 143 152 159 160 147 129 108 116 34 142 124 148 198 183 165 184 196 198 236 295 324 353 352 311 305 306 295
146 115 123 102 118 117 110 97 106 123 126 136 148 161 170 168 152 152 146 145 151 163 153 157 153 161 160 159 161 182 184 26 198 186 205 195 184 190 184 212 222 245 264 319 322 309 303 293 284
136 129 121 143 119 154 111 141 136 136 142 151 164 174 175 168 152 156 147 150 152 162 159 160 164 162 160 162 177 168 210 205 262 254 251 250 222 186 192 217 230 241 229 220 259 279 291 298 299
158 197 128 130 172 148 109 144 155 165 163 167 181 175 156 150 147 148 148 154 156 151 148 166 180 164 165 170 171 186 223 222 217 255 262 265 248 158 178 199 236 218 226 244 241 263 234 268 287
189 219 151 151 201 165 127 155 164 172 169 181 182 155 151 158 154 137 141 144 141 152 158 165 175 165 150 163 158 194 214 228 242 248 234 307 276 169 193 281 274 265 235 256 248 251 249 235 247
201 182 126 220 210 136 151 151 170 177 170 173 172 158 160 165 155 151 158 164 156 155 171 163 154 143 128 130 147 181 213 231 243 237 245 194 92 64 111 243 269 260 236 238 233 221 232 287 282
240 155 181 224 182 123 168 162 175 150 178 175 176 178 174 172 154 160 165 178 175 169 156 148 148 156 153 156 180 169 179 222 213 216 186 117 70 152 216 215 239 276 304 299 305 266 169 262 271
246 176 208 166 178 153 123 160 121 235 168 203 175 178 185 166 155 165 173 182 162 161 159 163 167 162 164 179 167 210 316 311 87 18 101 97 94 69 90 32 355 344 3 349 348 2 317 267 310
245 270 283 160 148 176 178 195 206 207 239 201 177 180 181 161 159 152 165 168 152 166 165 161 162 167 178 174 165 161 173 185 233 134 141 166 178 180 249 262 6 65 26 18 359 350 327 326 289
215 260 243 264 193 164 187 108 222 178 243 193 184 182 182 167 166 166 168 179 162 158 166 166 161 170 149 132 130 128 110 97 64 103 138 56 343 254 225 158 101 56 20 344 337 337 317 313 307
234 211 288 252 153 50 215 150 183 179 196 205 174 184 182 170 171 172 174 172 166 166 161 161 144 148 148 133 144 130 136 134 104 82 41 7 314 18 100 100 76 43 335 313 295 291 294 288 275
186 144 285 352 1 223 253 259 196 195 187 193 207 184 190 174 174 176 178 174 169 172 164 154 148 160 159 158 166 172 161 152 175 193 159 149 61 96 136 117 100 308 295 296 307 303 304 298 179
201 164 156 193 197 242 246 233 239 184 191 190 204 201 177 179 176 178 179 175 173 172 163 160 158 160 168 175 165 144 148 161 195 146 154 142 163 170 147 140 171 242 277 281 255 231 262 274 169
227 182 191 183 237 324 233 174 21 166 197 195 206 204 193 192 181 179 177 176 174 172 165 164 165 161 169 185 163 156 167 171 158 149 143 163 122 182 148 177 256 291 306 308 286 247 234 167 149
156 154 213 345 213 286 280 245 196 148 155 165 187 203 204 199 182 172 174 178 174 171 164 164 168 170 174 171 169 175 182 182 172 160 177 200 227 220 230 235 251 285 300 312 307 291 274 255 249
124 163 165 166 152 187 267 260 217 149 155 164 175 167 187 202 181 174 174 176 173 167 164 167 169 170 171 169 168 180 181 181 172 168 195 209 209 219 231 235 249 258 270 279 277 259 261 259 241
194 177 163 125 272 223 150 262 156 151 159 134 143 140 142 146 182 177 169 170 173 170 166 171 170 173 176 160 162 165 165 169 177 180 192 200 194 230 233 249 264 272 277 276 260 256 264 249 257